Погода в Батаюрте

Россия / Республика Дагестан     43°18′52″N   46°40′51″E
темп.,
°C
ветер,
м/с
пор.,
м/с
влажн.,
%
обл.,
%
осадки,
мм/ч
давл.,
гПа
погр.,
м
4 июля, пн
пн400:00+22зюз813449 0.1 1013725
03:00+21з7144719 0.1 1014533
06:00+22з711445 0.0 1015874
09:00+27зсз710295 0.0 10152655
12:00+30сз782139 0.0 10133327
15:00+31ссз77198 0.0 10123358
18:00+30сз462118 0.0 10123062
21:00+22юз454062 0.0 101384
5 июля, вт
вт500:00+21юз48380 0.0 1013107
03:00+20юз34420 0.0 101346
06:00+24зюз36350 0.0 1013204
09:00+30зсз77242 0.0 10132411
12:00+33зсз78208 0.0 10123645
15:00+33сз882116 0.0 10113539
18:00+27вюв664846 0.0 1012552
21:00+23вюв466215 0.0 1014149
6 июля, ср
ср600:00+20вюв23730 0.0 101433
03:00+20ююв116660 0.0 101413
06:00+23зсз10550 0.0 1014142
09:00+29св33270 0.0 10141641
12:00+32св43210 0.0 10142901
15:00+30в97310 0.0 10141412
18:00+25в88440 0.0 10141100
21:00+19в711800 0.0 1016445
7 июля, чт
чт700:00+18в59710 0.0 1015295
03:00+17вюв510770 0.0 1015349
06:00+20вюв610720 0.0 1015651
09:00+25вюв99480 0.0 10141200
12:00+28в11113933 0.0 10131427
15:00+27в1112372 0.0 10121287
18:00+24в10114515 0.0 1012885
21:00+19вюв611685 0.1 1013341
8 июля, пт
пт800:00+18вюв488085 0.0 1012212
03:00+17вюв378396 0.0 1012168
06:00+21вюв366669 0.0 1012304
09:00+29вюв8112885 0.0 10111505
12:00+31в10102185 0.1 10101936
15:00+29вюв9112794 0.1 10101270
18:00+27вюв8113666 0.0 1010908
21:00+23вюв51151100 0.0 1011374